TimeEST,TemperatureF,Dew PointF,Humidity,Sea Level PressureIn,VisibilityMPH,Wind Direction,Wind SpeedMPH,Gust SpeedMPH,PrecipitationIn,Events,Conditions,WindDirDegrees,DateUTC
12:15 AM,50.0,50.0,100,30.10,1.2,Calm,Calm,-,N/A,,Mist,0,2012-12-09 05:15:00
12:35 AM,50.0,50.0,100,30.10,5.0,Calm,Calm,-,N/A,,Mostly Cloudy,0,2012-12-09 05:35:00
12:55 AM,50.0,50.0,100,30.09,10.0,Calm,Calm,-,N/A,,Scattered Clouds,0,2012-12-09 05:55:00
1:15 AM,50.0,50.0,100,30.09,2.5,Calm,Calm,-,N/A,,Clear,0,2012-12-09 06:15:00
1:35 AM,50.0,50.0,100,30.09,5.0,Calm,Calm,-,N/A,,Clear,0,2012-12-09 06:35:00
1:55 AM,50.0,50.0,100,30.09,10.0,Calm,Calm,-,N/A,,Clear,0,2012-12-09 06:55:00
2:15 AM,48.2,48.2,100,30.10,7.0,Calm,Calm,-,N/A,,Clear,0,2012-12-09 07:15:00
2:35 AM,50.0,50.0,100,30.10,7.0,Calm,Calm,-,N/A,,Clear,0,2012-12-09 07:35:00
2:55 AM,50.0,50.0,100,30.10,7.0,Calm,Calm,-,N/A,,Clear,0,2012-12-09 07:55:00
3:15 AM,50.0,50.0,100,30.10,10.0,Calm,Calm,-,N/A,,Clear,0,2012-12-09 08:15:00
3:35 AM,50.0,50.0,100,30.10,5.0,Calm,Calm,-,N/A,,Clear,0,2012-12-09 08:35:00
3:55 AM,50.0,50.0,100,30.10,0.5,Calm,Calm,-,N/A,Fog,Fog,0,2012-12-09 08:55:00
4:15 AM,50.0,50.0,100,30.10,0.2,Calm,Calm,-,N/A,Fog,Fog,0,2012-12-09 09:15:00
4:35 AM,48.2,48.2,100,30.10,0.2,Calm,Calm,-,N/A,Fog,Fog,0,2012-12-09 09:35:00
4:55 AM,48.2,48.2,100,30.10,0.2,Calm,Calm,-,N/A,Fog,Fog,0,2012-12-09 09:55:00
5:15 AM,50.0,50.0,100,30.10,0.2,Calm,Calm,-,N/A,Fog,Fog,0,2012-12-09 10:15:00
5:35 AM,48.2,48.2,100,30.11,0.5,Calm,Calm,-,N/A,Fog,Fog,0,2012-12-09 10:35:00
5:55 AM,46.4,46.4,100,30.12,4.0,Calm,Calm,-,N/A,,Overcast,0,2012-12-09 10:55:00
6:15 AM,46.4,46.4,100,30.12,0.5,Calm,Calm,-,N/A,Fog,Fog,0,2012-12-09 11:15:00
6:35 AM,48.2,48.2,100,30.13,0.2,Calm,Calm,-,N/A,Fog,Fog,0,2012-12-09 11:35:00
6:55 AM,48.2,48.2,100,30.13,0.2,Calm,Calm,-,N/A,Fog,Fog,0,2012-12-09 11:55:00
7:15 AM,50.0,50.0,100,30.13,1.8,Calm,Calm,-,N/A,,Mostly Cloudy,0,2012-12-09 12:15:00
7:35 AM,48.2,48.2,100,30.14,3.0,Calm,Calm,-,N/A,,Scattered Clouds,0,2012-12-09 12:35:00
7:55 AM,50.0,50.0,100,30.14,2.5,Calm,Calm,-,N/A,,Mostly Cloudy,0,2012-12-09 12:55:00
8:15 AM,53.6,53.6,100,30.14,4.0,Calm,Calm,-,N/A,,Scattered Clouds,0,2012-12-09 13:15:00
8:35 AM,55.4,55.4,100,30.15,4.0,Calm,Calm,-,N/A,,Clear,0,2012-12-09 13:35:00
8:55 AM,59.0,59.0,100,30.15,5.0,Calm,Calm,-,N/A,,Scattered Clouds,0,2012-12-09 13:55:00
9:15 AM,60.8,60.8,100,30.16,7.0,SE,3.5,-,N/A,,Mostly Cloudy,130,2012-12-09 14:15:00
9:35 AM,62.6,62.6,100,30.16,10.0,ESE,4.6,-,N/A,,Mostly Cloudy,120,2012-12-09 14:35:00
9:55 AM,64.4,62.6,94,30.16,10.0,Calm,Calm,-,N/A,,Mostly Cloudy,0,2012-12-09 14:55:00
10:35 AM,68.0,64.4,88,30.16,10.0,SE,6.9,-,N/A,,Clear,130,2012-12-09 15:35:00
10:55 AM,69.8,64.4,83,30.15,10.0,ESE,5.8,-,N/A,,Clear,120,2012-12-09 15:55:00
11:35 AM,71.6,64.4,78,30.14,10.0,ESE,6.9,-,N/A,,Scattered Clouds,110,2012-12-09 16:35:00
11:55 AM,71.6,64.4,78,30.13,10.0,SE,8.1,-,N/A,,Clear,130,2012-12-09 16:55:00
12:15 PM,73.4,64.4,73,30.11,10.0,SE,8.1,-,N/A,,Clear,130,2012-12-09 17:15:00
12:35 PM,71.6,64.4,78,30.10,10.0,ESE,10.4,-,N/A,,Clear,120,2012-12-09 17:35:00
12:55 PM,73.4,64.4,73,30.09,10.0,ESE,9.2,-,N/A,,Clear,110,2012-12-09 17:55:00
1:15 PM,73.4,64.4,73,30.08,10.0,ESE,9.2,-,N/A,,Clear,120,2012-12-09 18:15:00
1:35 PM,71.6,64.4,78,30.08,10.0,ESE,11.5,-,N/A,,Clear,120,2012-12-09 18:35:00
1:55 PM,73.4,64.4,73,30.07,10.0,ESE,10.4,-,N/A,,Clear,110,2012-12-09 18:55:00
2:15 PM,71.6,64.4,78,30.07,10.0,ESE,9.2,-,N/A,,Scattered Clouds,120,2012-12-09 19:15:00
2:35 PM,71.6,64.4,78,30.07,10.0,ESE,10.4,-,N/A,,Scattered Clouds,120,2012-12-09 19:35:00
2:55 PM,71.6,64.4,78,30.07,10.0,ESE,8.1,-,N/A,,Scattered Clouds,110,2012-12-09 19:55:00
3:15 PM,71.6,64.4,78,30.08,10.0,ESE,8.1,-,N/A,,Scattered Clouds,120,2012-12-09 20:15:00
3:35 PM,71.6,64.4,78,30.07,10.0,ESE,8.1,-,N/A,,Mostly Cloudy,120,2012-12-09 20:35:00
3:55 PM,69.8,64.4,83,30.07,10.0,ESE,4.6,-,N/A,,Scattered Clouds,120,2012-12-09 20:55:00
4:15 PM,68.0,64.4,88,30.07,10.0,ESE,4.6,-,N/A,,Mostly Cloudy,110,2012-12-09 21:15:00
4:35 PM,68.0,64.4,88,30.07,10.0,ESE,3.5,-,N/A,,Overcast,120,2012-12-09 21:35:00
5:15 PM,64.4,64.4,100,30.06,10.0,Calm,Calm,-,N/A,,Overcast,0,2012-12-09 22:15:00
5:35 PM,64.4,64.4,100,30.07,10.0,SE,3.5,-,N/A,,Overcast,130,2012-12-09 22:35:00
5:55 PM,62.6,62.6,100,30.07,10.0,Calm,Calm,-,N/A,,Mostly Cloudy,0,2012-12-09 22:55:00
6:15 PM,62.6,62.6,100,30.06,10.0,Calm,Calm,-,N/A,,Mostly Cloudy,0,2012-12-09 23:15:00
6:35 PM,62.6,62.6,100,30.07,10.0,Calm,Calm,-,N/A,,Scattered Clouds,0,2012-12-09 23:35:00
6:55 PM,62.6,62.6,100,30.06,10.0,Calm,Calm,-,N/A,,Scattered Clouds,0,2012-12-09 23:55:00
7:15 PM,60.8,60.8,100,30.06,10.0,Calm,Calm,-,N/A,,Mostly Cloudy,0,2012-12-10 00:15:00
7:35 PM,60.8,60.8,100,30.06,10.0,Calm,Calm,-,N/A,,Mostly Cloudy,0,2012-12-10 00:35:00
7:55 PM,60.8,60.8,100,30.06,10.0,Calm,Calm,-,N/A,,Scattered Clouds,0,2012-12-10 00:55:00
8:15 PM,60.8,60.8,100,30.05,10.0,Calm,Calm,-,N/A,,Mostly Cloudy,0,2012-12-10 01:15:00
8:35 PM,60.8,60.8,100,30.05,10.0,Calm,Calm,-,N/A,,Overcast,0,2012-12-10 01:35:00
8:55 PM,62.6,62.6,100,30.06,10.0,Calm,Calm,-,N/A,,Mostly Cloudy,0,2012-12-10 01:55:00
9:15 PM,60.8,60.8,100,30.05,7.0,Calm,Calm,-,N/A,,Overcast,0,2012-12-10 02:15:00
9:35 PM,62.6,62.6,100,30.04,10.0,Calm,Calm,-,N/A,,Overcast,0,2012-12-10 02:35:00
9:55 PM,60.8,60.8,100,30.04,10.0,Calm,Calm,-,N/A,,Overcast,0,2012-12-10 02:55:00
10:15 PM,62.6,62.6,100,30.03,10.0,Calm,Calm,-,N/A,,Overcast,0,2012-12-10 03:15:00
10:35 PM,62.6,62.6,100,30.03,10.0,Calm,Calm,-,N/A,,Overcast,0,2012-12-10 03:35:00
10:55 PM,64.4,64.4,100,30.02,10.0,Calm,Calm,-,N/A,,Overcast,0,2012-12-10 03:55:00
11:15 PM,64.4,64.4,100,30.02,10.0,Calm,Calm,-,N/A,,Overcast,0,2012-12-10 04:15:00
11:35 PM,64.4,64.4,100,30.01,10.0,ESE,4.6,-,N/A,,Overcast,120,2012-12-10 04:35:00
11:55 PM,64.4,64.4,100,29.99,10.0,Calm,Calm,-,N/A,,Overcast,0,2012-12-10 04:55:00